Погода в Нефтчале

Погода в Нефтчале : погода сейчас, прогноз погоды и архив. Всё, что Вы хотите узнать о погоде в Нефтчале!

Поиск расширенной информации на нашем сайте:

Другие новости

Новости СМИ2

Главная страница сайта

Новости сайта

03.07.2017

Напоминаем, что на нашем специализированном сайте Метеоцентр.Азия вы можете получить высокодетализированные автоматические прогнозы погоды по пунктам России, СНГ и мира в авиационном формате (включающие направление и скорость ветра, видимость, явления погоды, количество и форму облачности, нижнюю и верхнюю границу облачности).

Рекомендуем: Abc автоматика ворота сервис.

Погода в Нефтчале - сегодня

Время (UTC), дата Ветер
(°,м/с) 
Видим.   Явления Облачность Т
(°С)
Тd
(°С)
f(%) Тe
(°С)
Pmin
(гПа)
dP
(гПа)
Po
(мм)
O2
(г/м3)
Тmin Tmax R s Состояние
почвы
15 23.05.18 140 (ЮВ) 20000 м    ясно 
+25 +18.1 66 +39  1017  -0.3  765  278           
18 23.05.18 тихо ()   10 км    ясно 
+20.3 +19.2 93 +36  1017  765  282    +28.7       
21 23.05.18 тихо ()   10 км    ясно 
+18.4 +17.9 97 +32  1015.8  -1.2  764  284           
00 24.05.18 тихо ()   10 км    ясно 
+18 +17.6 98 +31  1014.8  -1  763  285           
03 24.05.18 тихо ()   20000 м    8/0 средняя 
[Ac und]
+17.9 +17.6 98 +31  1014.9  0.1  763  285           
06 24.05.18 270 (З) 20000 м    8/0 средняя 
[Ac und]
+24.7 +17.2 63 +37  1014.5  -0.4  763  278  +17.8         
09 24.05.18 050 (СВ) 20000 м    10/0 средняя 
[Ac As]
+25.6 +16.5 57 +37  1013.5  -1.1  762  277           
12 24.05.18 050 (СВ) 20000 м    5/0 средняя 
[Ac und]
+27.7 +17.7 55 +41  1011.4  -2.1  761  274           
15 24.05.18 050 (СВ) 20000 м    5/0 средняя 
[Ac und]
+23.5 +20.6 84 +43  1010.9  -0.5  760  277           
21 24.05.18 050 (СВ) 10 км    ясно 
+19.4 +19 98 +36  1009.5  -1.2  759  281           
00 25.05.18 050 (СВ) 10 км    ясно 
+18.5 +18 97 +34  1009.1  -0.4  759  282           
03 25.05.18 тихо ()   20000 м    3/0 верхняя 
[Ci sp]
+21.2 +19.7 91 +39  1009.3  0.2  759  279           
06 25.05.18 360 (С) 20000 м    4/4 600 м 
[Cu Sc]
+27.6 +16.5 51 +39  1009  -0.4  759  274  +18.1         
09 25.05.18 140 (ЮВ) 20000 м    ясно 
+29.8 +15.8 43 +40  1008.2  -0.8  758  272           
12 25.05.18 тихо ()   20000 м    ясно 
+31 +13.1 34 +36  1007  -1.2  757  272           
15 25.05.18 140 (ЮВ) 20000 м    6/0 средняя 
[Ac und]
+25.3 +13.3 47 +31  1007.1  0.1  757  277           
18 25.05.18 тихо ()   10 км    8/0 средняя 
[Ac und]
+23.6 +19.9 80 +42  1008.7  1.6  759  277    +31.2       
21 25.05.18 тихо ()   10 км    9/0 средняя 
[Ac und]
+21.8 +19.7 88 +39  1006.5  -2.2  757  278           
00 26.05.18 тихо ()   10 км    8/0 средняя 
[Ac und]
+21.7 +20.2 91 +40  1007.3  0.8  758  278           
03 26.05.18 тихо ()   20000 м    ясно 600 м 
[Sc]
+22.8 +19.9 84 +41  1006.5  -0.8  757  277           
09 26.05.18 050 (СВ) 20000 м    ясно 
+29.9 +16.9 46 +42  1009.1  0.3  759  272           
12 26.05.18 050 (СВ) 20000 м    ясно 
+28.4 +17.4 51 +41  1009.7  0.6  759  273           
15 26.05.18 050 (СВ) 10  20000 м    ясно 
+24.6 +18.3 68 +39  1010.5  0.8  760  277           
21 26.05.18 050 (СВ) 16  10 км    10/0 средняя 
[Ac As]
+20.8 +16.4 76 +31  1017  3.5  765  283           
00 27.05.18 050 (СВ) 18  10 км  {ливн. осадки}  10/10 600 м 
[Sc]
+18.3 +14.7 80 +25  1017.7  0.7  765  286           
Время (UTC), дата Ветер
(°,м/с) 
Видим.   Явления Облачность Т
(°С)
Тd
(°С)
f(%) Тe
(°С)
Pmin
(гПа)
dP
(гПа)
Po
(мм)
O2
(г/м3)
Тmin Tmax R s Состояние
почвы

Для получения пояснительной информации подведите курсор к названию столбца.

ПОГОДА в Нефтчале - архив

Всё, что Вы хотите узнать о погоде в Нефтчале - удобно и подробно!

Выберите нужную дату (начиная с 1 января 2015* года) и нажмите кнопку "Найти".
Будут отображены архивные сводки погоды по пункту Нефтчала, начиная с указанной даты.


Отображать данные в формате CSV (для использования в таблицах Excel)


Внимание! Наш архив погоды предназначен исключительно для личного некоммерческого использования в познавательных целях. Если Вам необходимы официальные справки о состоянии погоды (для производственных, юридических, коммерческих и т.п. целей), обращайтесь в органы Росгидромета.

*Примечание: данная дата относится к архиву по метеостанциям СССР (Россия, СНГ, Балтия).
Архив по метеостанциям Зарубежной Европы и Азии (кроме Китая) хранится 10 дней, по другим регионам земного шара (Китай, Африка, Америка, Австралия, Океания) - 1 день.

Нефтчала - район местоположения метеостанции


Название, широта, долгота, высота метеостанции:
Нефтчала 39.4°ш. 49.2°д. -24 м над ур. моря [Азербайджан]

Дополнительная информация

В oтличие oт бoльшинства пoгoдных сайтoв мы публикуем пoдрoбную метеoинфoрмацию в детальнoм прoфессиoнальнoм фoрмате.

Характеристики температуры и влажнoсти вoздуха измеряются на высoте 2 м в тени вдали oт зданий и деревьев.
Скoрoсть ветра измеряется на высoте 10 м (на урoвне рoста челoвека скoрoсть ветра ниже в 1.5-2 раза). Если метеoстанция нахoдится в гoрoде или в лесу, тo скoрoсть ветра занижена на 2-4 м/с пo сравнению с oткрытым местoм. Скoрoсть ветра над акватoриями крупных рек и oзёр, а также на вершинах хoлмoв на 2-5 м/с выше, чем в oбычных услoвиях.
Атмoсфернoе давление в разных тoчках местнoсти мoжет значительнo oтличаться oт давления на метеoстанции, в зависимoсти oт услoвий рельефа (при пoдъёме на 10 м давление пoнижается примернo на 1 мм рт.ст.).